Location: P�rn�nmaa
(61.1833°N, 23.0000°E)
Time: 18:28:20
(UTC+00:00)

CZ-2D R/B - Pass Details

Date: 08 December 2019
Orbit: 522 x 538 km, 97.4° (Epoch: 22 January)

Event Time Altitude Azimuth Distance (km) Brightness Sun altitude
Exits shadow 16:02:53 33° 33° (NNE) 909 4.0 -17.8°
Drops below altitude 10° 16:05:38 10° 354° (N) 1,786 5.8 -18.1°
Sets 16:07:51 0° 347° (NNW) 2,678 6.8 -18.4°
